Weather History for Lincoln, CA

Change the Weather History Date:

Tuesday, March 19, 2013

  Actual Average (KAUN) Record (KAUN)
Temperature  
Mean Temperature 54 °F -  
Max Temperature 68 °F 62 °F 77 °F (1960)
Min Temperature 41 °F 42 °F 33 °F (1963)
Degree Days  
Heating Degree Days 10    
Growing Degree Days 4 (Base 50)    
Moisture  
Dew Point 45 °F    
Average Humidity 68    
Maximum Humidity 94    
Minimum Humidity 33    
Precipitation  
Precipitation 0.00 in - - ()
Sea Level Pressure  
Sea Level Pressure 30.08 in    
Wind  
Wind Speed 4 mph (SE)    
Max Wind Speed 20 mph    
Max Gust Speed 28 mph    
Visibility 10 miles    
Events      
Averages and records for this station are not official NWS values.
T = Trace of Precipitation, MM = Missing Value Source: NWS Daily Summary

Daily Weather History Graph

Daily Weather History Graph

Search for Another Location

Airport:

Trip Planner

Search our weather history database for the weather conditions in past years. The results will help you decide how hot, cold, wet, or windy it might be!

Date:

Astronomy

Mar. 19, 2013 Rise Set
Actual Time 7:09 AM PDT 7:16 PM PDT
Civil Twilight 6:43 AM PDT 7:43 PM PDT
Nautical Twilight 6:12 AM PDT 8:14 PM PDT
Astronomical Twilight 5:40 AM PDT 8:46 PM PDT
Moon 12:07 PM PDT (3/19) 2:04 AM PDT (3/19)
Length of Visible Light 13h 00m
Length of Day
12h 06m
Waxing Crescent, 51% of the Moon is Illuminated
Mar 19
Waxing Crescent
Mar 27
Full
Apr 2
Last Quarter
Apr 10
New
Apr 18
First Quarter

Hourly Weather History & Observations

Time (PDT) Temp. Windchill Dew Point Humidity Pressure Visibility Wind Dir Wind Speed Gust Speed Precip Events Conditions
12:15 AM 55.4 °F - 46.4 °F 72% 30.07 in 10.0 mi ESE 5.8 mph - N/A   Overcast
12:35 AM 59.0 °F - 42.8 °F 55% 30.07 in 10.0 mi ESE 4.6 mph - N/A   Overcast
12:55 AM 57.2 °F - 42.8 °F 59% 30.06 in 10.0 mi ESE 3.5 mph - N/A   Mostly Cloudy
1:15 AM 53.6 °F - 44.6 °F 72% 30.06 in 10.0 mi East 4.6 mph - N/A   Scattered Clouds
1:35 AM 55.4 °F - 42.8 °F 63% 30.06 in 10.0 mi East 4.6 mph - N/A   Mostly Cloudy
1:55 AM 57.2 °F - 42.8 °F 59% 30.06 in 10.0 mi SE 4.6 mph - N/A   Overcast
2:15 AM 57.2 °F - 42.8 °F 59% 30.06 in 10.0 mi ESE 3.5 mph - N/A   Mostly Cloudy
2:35 AM 55.4 °F - 42.8 °F 63% 30.06 in 10.0 mi Calm Calm - N/A   Scattered Clouds
3:15 AM 51.8 °F - 44.6 °F 76% 30.06 in 10.0 mi Calm Calm - N/A   Mostly Cloudy
3:35 AM 50.0 °F - 44.6 °F 82% 30.05 in 10.0 mi Calm Calm - N/A   Scattered Clouds
3:55 AM 51.8 °F - 42.8 °F 71% 30.04 in 10.0 mi Calm Calm - N/A   Clear
4:15 AM 50.0 °F - 42.8 °F 76% 30.05 in 10.0 mi Calm Calm - N/A   Scattered Clouds
4:35 AM 50.0 °F - 42.8 °F 76% 30.04 in 10.0 mi Calm Calm - N/A   Clear
4:55 AM 50.0 °F - 42.8 °F 76% 30.04 in 10.0 mi Calm Calm - N/A   Clear
5:15 AM 46.4 °F 42.9 °F 42.8 °F 87% 30.03 in 10.0 mi SSE 6.9 mph - N/A   Clear
5:35 AM 48.2 °F - 42.8 °F 82% 30.03 in 10.0 mi SSE 8.1 mph - N/A   Clear
5:55 AM 46.4 °F 44.3 °F 41.0 °F 81% 30.04 in 10.0 mi SSE 4.6 mph - N/A   Clear
6:15 AM 44.6 °F 43.1 °F 41.0 °F 87% 30.06 in 10.0 mi West 3.5 mph - N/A   Clear
6:35 AM 42.8 °F - 37.4 °F 81% 30.06 in 10.0 mi Calm Calm - N/A   Clear
6:55 AM 41.0 °F - 39.2 °F 93% 30.06 in 10.0 mi Calm Calm - N/A   Clear
7:15 AM 41.0 °F - 39.2 °F 93% 30.07 in 10.0 mi Calm Calm - N/A   Clear
7:35 AM 41.0 °F - 39.2 °F 93% 30.08 in 10.0 mi Calm Calm - N/A   Clear
7:55 AM 42.8 °F - 41.0 °F 93% 30.09 in 10.0 mi Calm Calm - N/A   Clear
8:15 AM 48.2 °F - 44.6 °F 87% 30.09 in 10.0 mi Calm Calm - N/A   Clear
8:35 AM 50.0 °F - 44.6 °F 82% 30.09 in 10.0 mi East 3.5 mph - N/A   Clear
8:55 AM 53.6 °F - 44.6 °F 72% 30.10 in 10.0 mi SE 5.8 mph - N/A   Clear
9:15 AM 55.4 °F - 44.6 °F 67% 30.10 in 10.0 mi SE 4.6 mph - N/A   Clear
9:35 AM 55.4 °F - 44.6 °F 67% 30.10 in 10.0 mi ESE 5.8 mph - N/A   Clear
9:55 AM 59.0 °F - 44.6 °F 59% 30.09 in 10.0 mi ESE 4.6 mph - N/A   Clear
10:15 AM 60.8 °F - 44.6 °F 55% 30.10 in 10.0 mi SE 9.2 mph - N/A   Clear
10:35 AM 62.6 °F - 44.6 °F 52% 30.09 in 10.0 mi SE 9.2 mph - N/A   Clear
10:55 AM 62.6 °F - 42.8 °F 48% 30.09 in 10.0 mi SE 10.4 mph - N/A   Clear
11:15 AM 64.4 °F - 42.8 °F 45% 30.09 in 10.0 mi SSE 8.1 mph - N/A   Clear
11:35 AM 64.4 °F - 42.8 °F 45% 30.09 in 10.0 mi SSE 10.4 mph - N/A   Clear
11:55 AM 66.2 °F - 42.8 °F 43% 30.09 in 10.0 mi South 10.4 mph - N/A   Clear
12:15 PM 66.2 °F - 42.8 °F 43% 30.09 in 10.0 mi South 10.4 mph - N/A   Clear
12:35 PM 66.2 °F - 41.0 °F 40% 30.09 in 10.0 mi South 9.2 mph - N/A   Clear
12:55 PM 68.0 °F - 39.2 °F 35% 30.09 in 10.0 mi SSW 6.9 mph - N/A   Clear
1:15 PM 68.0 °F - 37.4 °F 33% 30.08 in 10.0 mi SSE 5.8 mph - N/A   Scattered Clouds
1:35 PM 68.0 °F - 41.0 °F 37% 30.08 in 10.0 mi SE 4.6 mph - N/A   Overcast
1:55 PM 68.0 °F - 41.0 °F 37% 30.08 in 10.0 mi South 5.8 mph - N/A   Overcast
2:15 PM 68.0 °F - 41.0 °F 37% 30.07 in 10.0 mi SSW 8.1 mph - N/A   Overcast
2:35 PM 68.0 °F - 41.0 °F 37% 30.07 in 10.0 mi SSW 4.6 mph - N/A   Overcast
2:55 PM 68.0 °F - 41.0 °F 37% 30.06 in 10.0 mi SSW 4.6 mph - N/A   Overcast
3:15 PM 68.0 °F - 44.6 °F 43% 30.06 in 10.0 mi SSW 4.6 mph - N/A   Overcast
3:35 PM 64.4 °F - 50.0 °F 59% 30.07 in 10.0 mi Calm Calm - N/A   Overcast
3:55 PM 64.4 °F - 48.2 °F 56% 30.07 in 10.0 mi Calm Calm - N/A   Overcast
4:15 PM 62.6 °F - 53.6 °F 72% 30.08 in 10.0 mi NW 3.5 mph - N/A   Overcast
4:35 PM 62.6 °F - 51.8 °F 68% 30.07 in 10.0 mi North 3.5 mph - N/A   Overcast
4:55 PM 62.6 °F - 51.8 °F 68% 30.07 in 10.0 mi North 3.5 mph - N/A   Overcast
5:15 PM 62.6 °F - 51.8 °F 68% 30.06 in 10.0 mi North 3.5 mph - N/A   Overcast
5:35 PM 62.6 °F - 51.8 °F 68% 30.06 in 10.0 mi North 3.5 mph - N/A   Overcast
5:55 PM 60.8 °F - 51.8 °F 72% 30.06 in 10.0 mi Calm Calm - N/A   Overcast
6:15 PM 60.8 °F - 53.6 °F 77% 30.07 in 10.0 mi East 4.6 mph - N/A   Overcast
6:35 PM 60.8 °F - 53.6 °F 77% 30.06 in 10.0 mi ENE 4.6 mph - N/A   Overcast
6:55 PM 59.0 °F - 53.6 °F 82% 30.06 in 10.0 mi NE 3.5 mph - N/A   Overcast
7:15 PM 59.0 °F - 53.6 °F 82% 30.06 in 10.0 mi Calm Calm - N/A   Overcast
7:35 PM 59.0 °F - 51.8 °F 77% 30.07 in 10.0 mi Calm Calm - N/A   Overcast
7:55 PM 59.0 °F - 51.8 °F 77% 30.07 in 10.0 mi ENE 3.5 mph - N/A   Overcast
8:15 PM 57.2 °F - 51.8 °F 82% 30.08 in 10.0 mi East 5.8 mph - N/A   Overcast
8:35 PM 59.0 °F - 51.8 °F 77% 30.09 in 10.0 mi SSE 10.4 mph - N/A   Overcast
8:55 PM 59.0 °F - 46.4 °F 63% 30.10 in 10.0 mi SW 19.6 mph 27.6 mph N/A   Overcast
9:15 PM 53.6 °F - 44.6 °F 72% 30.11 in 10.0 mi WSW 4.6 mph - N/A   Overcast
9:35 PM 51.8 °F - 46.4 °F 82% 30.12 in 10.0 mi SSE 4.6 mph - N/A   Overcast
9:55 PM 51.8 °F - 44.6 °F 76% 30.12 in 10.0 mi South 8.1 mph - N/A   Overcast
10:15 PM 50.0 °F - 46.4 °F 87% 30.13 in 10.0 mi South 8.1 mph - N/A   Overcast
10:35 PM 50.0 °F - 46.4 °F 87% 30.12 in 10.0 mi SSE 6.9 mph - N/A   Overcast
10:55 PM 50.0 °F - 46.4 °F 87% 30.12 in 10.0 mi SE 6.9 mph - N/A   Overcast
11:15 PM 51.8 °F - 50.0 °F 94% 30.13 in 10.0 mi South 5.8 mph - N/A   Overcast
11:35 PM 51.8 °F - 50.0 °F 94% 30.11 in 7.0 mi SE 8.1 mph - N/A   Mostly Cloudy
11:55 PM 51.8 °F - 50.0 °F 94% 30.10 in 10.0 mi ESE 8.1 mph - N/A   Overcast